• Join FlightAware (Why Join?)
  • Login
  • US Flag 
10:32AM EDT


 

Airport Tracker/Info


-or-


 

Live Flight TrackerFlight Track Log ✈ AAL1593 ✈ 20-Jun-2013 ✈ KMCO - KMIA

Flight Track Log - Related Links

Times and Time Zones

All times are in EDT time to prevent confusion due to time zone crossing. See the AAL1593 flight status page for this flight to view local times or setup timezone preferences in your user account.

Time Position Orientation Groundspeed Altitude Reporting Facility
EDT Latitude Longitude Course Direction KTS MPH feet Rate Location/Type
12:19PM 28.4167 -81.3000 114° Southeast 156 180 600  Level Orlando TRACON
12:20PM 28.3667 -81.2667 150° Southeast 215 247 2,800 2,760 Climbing Orlando TRACON
12:21PM 28.2389 -81.2336 106° East  Level Estimated
12:21PM 28.3333 -81.2000 120° Southeast 285 328 6,200  Level Orlando TRACON
12:22PM 28.1437 -81.1960 122° Southeast  Level Estimated
12:23PM 28.1696 -81.0854 75° East  Level FlightAware Approximate
12:23PM 28.2775 -81.0317 111° Southeast 312 359 11,900  Level Miami Center
12:24PM 28.0730 -81.0524 114° Southeast  Level Estimated
12:24PM 28.2553 -80.9317 104° East 342 394 15,000  Level Miami Center
12:25PM 28.2275 -80.8106 105° East 352 405 17,800 2,700 Climbing Miami Center
12:26PM 28.1997 -80.6847 104° East 370 426 20,400 2,400 Climbing Miami Center
12:27PM 28.1544 -80.5772 116° Southeast 388 447 22,600 1,260 Climbing Miami Center
12:28PM 28.0428 -80.5361 162° South 364 419 23,000 180 Climbing Miami Center
12:29PM 27.9353 -80.4997 163° South 377 434 23,000  Level Miami Center
12:30PM 27.8319 -80.4564 160° South 382 440 23,000  Level Miami Center
12:31PM 27.7244 -80.4108 159° South 408 470 23,000  Level Miami Center
12:32PM 27.6192 -80.3678 160° South 413 475 23,000  Level Miami Center
12:33PM 27.5136 -80.3247 160° South 408 470 23,000  Level Miami Center
12:34PM 27.4039 -80.2908 165° South 403 464 23,000  Level Miami Center
12:35PM 27.3167 -80.2697 168° South 403 464 23,000  Level Miami Center
12:36PM 27.1881 -80.2308 165° South 403 464 23,000  Level Miami Center
12:37PM 27.0781 -80.2019 167° South 403 464 23,000 -360 Level Miami Center
12:38PM 26.9703 -80.1708 166° South 403 464 22,300 -1,320 Descending Miami Center
12:39PM 26.8664 -80.1400 165° South 395 455 20,500 -2,040 Descending Miami Center
12:40PM 26.7647 -80.1117 166° South 384 442 18,300 -2,040 Descending Miami Center
12:41PM 26.6650 -80.0856 167° South 379 436 16,500 -2,280 Descending Miami Center
12:42PM 26.5714 -80.0692 171° South 352 405 13,800 -1,800 Descending Miami Center
12:43PM 26.4778 -80.0550 172° South 340 391 13,100 -600 Descending Miami Center
12:44PM 26.3842 -80.0386 171° South 339 390 12,700 -1,140 Descending Miami Center
12:45PM 26.2925 -80.0222 171° South 334 384 10,900 -1,380 Descending Miami Center
12:46PM 26.2131 -80.0269 183° South 339 390 10,000 -480 Descending Miami Center
12:47PM 26.1250 -80.0500 193° South 324 373 10,000 -540 Level Miami Center
12:48PM 26.0472 -80.0711 194° South 316 364 9,000 -1,020 Descending Miami Center
12:49PM 25.9714 -80.0944 195° South 295 339 8,000 -480 Descending Miami Center
12:50PM 25.9400 -80.1883 250° West 284 327 8,100 -360 Climbing Miami Center
12:51PM 25.9386 -80.2578 269° West 253 291 7,300 -1,200 Descending Miami Center
12:52PM 25.9297 -80.3636 265° West 277 319 5,700 -1,200 Descending Miami Center
12:53PM 25.9236 -80.4397 265° West 226 260 4,800 -1,260 Descending Miami Center
12:54PM 25.8992 -80.4989 245° Southwest 222 255 3,200 -1,620 Descending Miami Center